Regional Weather Roundup
Issued by NWS

Home | Current Version | Previous Version | Text Only | Print | Product List | Glossary Off
Versions: 1 2 3 4 5 6 7 8 9 10 11 12 13 14 15 16 17 18 19 20 21 22 23 24 25 26 27 28 29 30 31 32 33 34 35 36 37 38 39 40 41 42 43 44 45 46 47 48 49 50

000
ASUS43 KLSX 030610
RWRMO

WEATHER SUMMARY FOR MISSOURI
NATIONAL WEATHER SERVICE SPRINGFIELD MO
100 AM CDT THU SEP 03 2015

NOTE: "FAIR" INDICATES FEW OR NO CLOUDS BELOW 12,000 FEET WITH NO
       SIGNIFICANT WEATHER AND/OR OBSTRUCTIONS TO VISIBILITY.
       CURRENT SKY AND/OR WEATHER CONDITIONS ARE NOT AVAILABLE FOR
       CHILLICOTHE AND FARMINGTON.

MOZ001>031-035>038-043-044-053-054-030700-
...NORTHERN AND WESTERN MISSOURI...

CITY           SKY/WX    TMP DP  RH WIND       PRES   REMARKS
KANSAS CTY INT FAIR      75  68  78 S10       29.95F
6HR MIN TEMP:  74; 6HR MAX TEMP:  84;

KANSAS C DTWN  FAIR      79  69  71 S9        29.94F
6HR MIN TEMP:  79; 6HR MAX TEMP:  86;

LEE`S SUMMIT   FAIR      77  67  71 S8        29.97F
6HR MIN TEMP:  76; 6HR MAX TEMP:  85;

ST JOSEPH      MOCLDY    74  70  87 S6        29.92F
6HR MIN TEMP:  74; 6HR MAX TEMP:  84;

CHILLICOTHE      N/A     74  70  87 S3        29.96F
6HR MIN TEMP:  72; 6HR MAX TEMP:  84;

KIRKSVILLE     FAIR      74  68  81 S7        29.98S
6HR MIN TEMP:  74; 6HR MAX TEMP:  80; 6HR PCP:  0.02;


$$
MOZ066>068-077>081-088>096-101>105-030700-
...SOUTHWEST MISSOURI...

CITY           SKY/WX    TMP DP  RH WIND       PRES   REMARKS
SPRINGFIELD    FAIR      72  66  81 S6        30.01F
6HR MIN TEMP:  71; 6HR MAX TEMP:  84;

JOPLIN         FAIR      74  67  78 SE6       29.99F
6HR MIN TEMP:  74; 6HR MAX TEMP:  84;


$$
MOZ032>034-039>042-045>050-055>058-069>072-030700-
...CENTRAL MISSOURI...

CITY           SKY/WX    TMP DP  RH WIND       PRES   REMARKS
COLUMBIA       FAIR      71  67  87 S6        30.00S
6HR MIN TEMP:  71; 6HR MAX TEMP:  83;

JEFFERSON CITY FAIR      71  66  84 CALM      29.99S
6HR MIN TEMP:  71; 6HR MAX TEMP:  87;

ROLLA          FAIR      72  67  84 S5        30.01S
6HR MIN TEMP:  70; 6HR MAX TEMP:  82;

SEDALIA        FAIR      73  68  84 S6        30.00S
6HR MIN TEMP:  72; 6HR MAX TEMP:  86;

WHITEMAN AFB   PTCLDY    72  67  84 S5        29.98R
WARRENSBURG    FAIR      72  68  88 SE3       29.98S
OSAGE BEACH    FAIR      72  66  83 S5        30.00F

$$
MOZ051-052-059>065-030700-
...EAST CENTRAL MISSOURI...

CITY           SKY/WX    TMP DP  RH WIND       PRES   REMARKS
ST LOUIS INTL  FAIR      80  69  69 S5        30.00S
6HR MIN TEMP:  80; 6HR MAX TEMP:  89;

SPIRIT OF STL  FAIR      72  71  97 CALM      29.99S FOG
6HR MIN TEMP:  72; 6HR MAX TEMP:  83;

ST CHARLES     FAIR      73  71  93 CALM      29.99S
6HR MIN TEMP:  72; 6HR MAX TEMP:  86;


$$
MOZ072>076-082>087-097>100-106>115-030700-
...SOUTH CENTRAL AND SOUTHEAST MISSOURI...

CITY           SKY/WX    TMP DP  RH WIND       PRES   REMARKS
CAPE GIRARDEAU FAIR      70  68  93 CALM      30.01S
6HR MIN TEMP:  69; 6HR MAX TEMP:  82;

FARMINGTON     FAIR      72  70  94 CALM      30.05F
6HR MIN TEMP:  70; 6HR MAX TEMP:  82;

POPLAR BLUFF   FAIR      70  68  93 CALM      29.99F FOG
6HR MIN TEMP:  70; 6HR MAX TEMP:  84;

WEST PLAINS    FAIR      73  67  81 CALM      30.05F
6HR MIN TEMP:  71; 6HR MAX TEMP:  84;


$$



USA.gov is the U.S. government's official web portal to all federal, state and local government web resources and services.